Location: Krakow
(50.0830°N, 19.9170°E)
Time: 17:19:15
(UTC+02:00)

Altair - Visible Passes

Search period start: 25 April 2025 00:00
Search period end: 05 May 2025 00:00
Orbit: 1502 x 1682 km, 47.2° (Epoch: 24 April)

Date Brightness Start Highest point End Pass type
(mag) Time Alt. Az. Time Alt. Az. Time Alt. Az.
25 Apr 8.3 20:35:57 10° WNW 20:44:55 42° SW 20:53:34 10° SSE visible
25 Apr 9.2 22:43:24 10° W 22:47:26 13° WSW 22:51:24 10° SSW visible
26 Apr 8.3 20:10:39 10° WNW 20:19:46 44° SW 20:28:34 10° SSE visible
26 Apr 9.2 22:17:33 10° W 22:22:24 15° SW 22:27:11 10° SSW visible
27 Apr 9.2 21:51:50 10° W 21:57:22 17° SW 22:02:48 10° SSW visible
28 Apr 9.2 21:26:14 10° W 21:32:19 19° SW 21:38:18 10° SSW visible
29 Apr 9.2 21:00:41 10° W 21:07:16 21° SW 21:13:43 10° S visible
30 Apr 9.2 20:35:12 10° W 20:42:12 23° SW 20:49:04 10° S visible
